Location: ????????
(41.2031°N, 22.5756°E)
Time: 14:42:54
(UTC+00:00)

CZ-3B R/B - Pass Details

Date: 01 December 2020
Orbit: 267 x 17440 km, 54.8° (Epoch: 21 January)

Event Time Altitude Azimuth Distance (km) Brightness Sun altitude
Rises 15:56:38 0° 215° (SW) 4,370 7.4 -10.3°
Reaches altitude 10° 16:00:55 10° 208° (SSW) 2,228 5.6 -11.0°
Maximum altitude 16:04:39 34° 141° (SE) 652 2.0 -11.7°
Enters shadow 16:05:43 22° 88° (E) 792 2.1 -11.9°
